Location: La Pernelle
(49.6188°N, 1.2999°W)
Time: 16:54:15
(UTC+00:00)

Cosmos 1110 Rocket - Visible Passes

Search period start: 21 October 2021 00:00
Search period end: 31 October 2021 00:00
Orbit: 753 x 780 km, 74.0° (Epoch: 20 October)

Date Brightness Start Highest point End Pass type
(mag) Time Alt. Az. Time Alt. Az. Time Alt. Az.
22 Oct 6.5 05:32:44 10° N 05:35:55 16° NE 05:39:06 10° E visible
23 Oct 6.7 04:56:19 10° NNE 04:57:58 11° NE 04:59:37 10° NE visible
24 Oct 5.7 05:59:06 10° N 06:03:44 32° NE 06:08:21 10° ESE visible
25 Oct 6.3 05:21:59 10° N 05:25:59 22° NE 05:29:59 10° E visible
26 Oct 6.6 04:45:04 10° N 04:48:07 15° NE 04:51:10 10° E visible
27 Oct 6.8 04:08:46 10° NNE 04:10:08 11° NE 04:11:31 10° NE visible
27 Oct 5.1 05:48:36 10° NNW 05:53:36 46° ENE 05:58:35 10° SE visible
28 Oct 5.8 05:11:22 10° N 05:15:57 30° NE 05:20:31 10° ESE visible
29 Oct 6.3 04:34:15 10° N 04:38:11 21° NE 04:42:06 10° E visible
29 Oct 4.0 06:15:38 10° NNW 06:20:50 76° WSW 06:26:01 10° SSE visible
30 Oct 6.7 03:57:23 10° N 04:00:19 15° NE 04:03:14 10° ENE visible
30 Oct 4.3 05:38:11 10° NNW 05:43:23 69° ENE 05:48:34 10° SSE visible
